Regional Weather Roundup
Issued by NWS

Home | Current Version | Previous Version | Text Only | Print | Product List | Glossary On
Versions: 1 2 3 4 5 6 7 8 9 10 11 12 13 14 15 16 17 18 19 20 21 22 23 24 25 26 27 28 29 30 31 32 33 34 35 36 37 38 39 40 41 42 43 44 45 46 47 48 49 50
089
ASUS43 KMPX 261810
RWRMN
WEATHER ROUNDUP FOR MINNESOTA
NATIONAL WEATHER SERVICE TWIN CITIES/CHANHASSEN MN
1200 PM CST SUN FEB 26 2017


NOTE: "FAIR" INDICATES FEW OR NO CLOUDS BELOW 12,000 FEET WITH NO
SIGNIFICANT WEATHER AND/OR OBSTRUCTIONS TO VISIBILITY. N/A MEANS
CURRENT SKY AND/OR WEATHER CONDITIONS ARE NOT AVAILABLE.

MNZ060>063-068>070-261900-
   Twin Cities Metro

CITY           SKY/WX    TMP DP  RH WIND       PRES   REMARKS
TWIN CITIES    PTSUNNY   37  21  52 W17G25    29.79R
6HR MIN TEMP:  23; 6HR MAX TEMP:  38;

ST PAUL        PTSUNNY   38  23  55 W15G22    29.80R
CRYSTAL        PTSUNNY   37  19  48 W16       29.77S
BLAINE         PTSUNNY   36  23  60 MISG      29.77R
LAKEVILLE      MOSUNNY   36  27  69 W16       29.80S
EDEN PRAIRIE   MOSUNNY   37  22  54 W15G21    29.79R
6HR MIN TEMP:  22; 6HR MAX TEMP:  37;

SOUTH ST PAUL  PTSUNNY   37  22  56 W14       29.79S
LAKE ELMO      PTSUNNY   34  23  64 W14       29.79R WCI  24
$$
MNZ001>005-007-008-013>017-022>024-027-028-261900-
   Northwest Minnesota

CITY           SKY/WX    TMP DP  RH WIND       PRES   REMARKS
BEMIDJI        SUNNY     17   6  61 NW6       29.79R WCI   8
HALLOCK        SUNNY     12   5  73 W8        29.84R WCI   1
ROSEAU         SUNNY     14   5  67 W12       29.81R WCI   0
WARROAD        SUNNY     14   3  62 W14       29.79S HAZE    WCI  -1
THIEF RVR FALL   N/A    N/A N/A N/A MISG        N/A
CROOKSTON      SUNNY     12   7  79 W5        29.87R WCI   4
FOSSTON        SUNNY     18   5  57 W3        29.83R
DETROIT LAKES  MOSUNNY   18  10  73 NW9       29.83R WCI   6
MOORHEAD       SUNNY     16   7  67 N5        29.88R WCI   9
PARK RAPIDS    SUNNY     20   5  52 VRB7      29.78R WCI  11
MAHNOMEN       FAIR      13   6  72 NW5       29.83S WCI   6
$$
MNZ006-009>011-018-025>026-261900-
   North Central Minnesota

CITY           SKY/WX    TMP DP  RH WIND       PRES   REMARKS
BAUDETTE       SUNNY     14   1  56 NW9       29.78R WCI   2
FLAG ISLAND    MOSUNNY   14   1  57 W14G22    29.76S WCI  -1
INTL FALLS     MOSUNNY   14  -1  51 NW12G20   29.76R WCI   0
6HR MIN TEMP:   7; 6HR MAX TEMP:  14; 6HR PCP: TRACE;

WASKISH        SUNNY     14   3  62 SW8       29.80R WCI   3
BIG FORK       SUNNY     18   1  49 NW6       29.76R WCI   9
LONGVILLE      SUNNY     18   7  62 W7        29.79R WCI   8
GRAND RAPIDS   FLURRIES  19   4  51 NW15      29.79R WCI   5
CRANE LAKE     PTSUNNY   14   1  57 NW10G20   29.77R WCI   1
ORR            SUNNY     16   1  53 NW9       29.72R WCI   4
COOK           SUNNY     16   3  57 NW9       29.74R WCI   4
WALKER         FAIR      16   3  57 NW10      29.78S WCI   4
$$
MNZ012-019>021-037-261900-
   Northeast Minnesota

CITY           SKY/WX    TMP DP  RH WIND       PRES   REMARKS
DULUTH         FLURRIES  20  12  71 NW15      29.70R WCI   6
6HR MIN TEMP:  19; 6HR MAX TEMP:  25; 6HR PCP:  0.03;

ELY            MOSUNNY   16   3  57 W15       29.69R WCI   1
HIBBING        SUNNY     15   4  61 NW14      29.74R WCI   0
EVELETH        LGT SNOW  17   0  46 NW14G22   29.73R WCI   3
DULUTH HARBOR  CLOUDY    23  18  80 NW14      29.76R WCI  11
TWO HARBORS    SUNNY     27  12  54 NW9G16    29.68R WCI  17
SILVER BAY     LGT RAIN  25  10  54 W13G18    29.66R WCI  13
GRAND MARAIS     N/A     25  11  55 NW12G22   29.66R WCI  14
G MARAIS ARPRT CLOUDY    16   5  62 W12G20    29.59R WCI   3
$$
MNZ029>031-032-039>041-046>048-054>057-064-261900-
   West Central Minnesota

CITY           SKY/WX    TMP DP  RH WIND       PRES   REMARKS
FERGUS FALLS   SUNNY     16  12  86 NW10      29.91R WCI   3
WHEATON        SUNNY     18  10  73 N9        29.90R WCI   6
MORRIS         SUNNY     23  12  63 NW14G21   29.85R WCI  11
ALEXANDRIA     SUNNY     23   9  55 NW10      29.82R WCI  12
ELBOW LAKE     FAIR      15   9  79 W10       29.86R WCI   2
WADENA         SUNNY     19   9  63 NW10      29.80R WCI   8
GLENWOOD       SUNNY     25  12  58 NW13      29.82R WCI  13
APPLETON       SUNNY     27  14  59 N9G16     29.87R WCI  17
BENSON         SUNNY     28  10  47 N16       29.86R WCI  17
ORTONVILLE       N/A     23  12  63 N8        29.86R WCI  14
MADISON        SUNNY     28  18  64 N10       29.86F WCI  19
WILLMAR        FAIR      28  19  69 W16       29.84R WCI  17
$$
MNZ033>034-036-042>043-049>051-058-059-261900-
   Central Minnesota

CITY           SKY/WX    TMP DP  RH WIND       PRES   REMARKS
ST CLOUD       MOSUNNY   31  17  56 NW18      29.78R WCI  19
6HR MIN TEMP:  24; 6HR MAX TEMP:  34;

SAUK CENTRE    FAIR      26  13  59 NW17      29.81R WCI  12
PAYNESVILLE    MOSUNNY   28  17  61 NW10G22   29.81R WCI  19
AITKIN           N/A     23   7  50 NW10      29.77R WCI  12
PINE RIVER     SUNNY     19   9  63 NW8       29.83R WCI   9
BRAINERD       SUNNY     20   8  60 N14       29.80R WCI   7
STAPLES        SUNNY     19   9  63 W9        29.80R WCI   9
LONG PRAIRIE   FAIR      27  12  54 W13G18    29.81R WCI  16
LITTLE FALLS   SUNNY     27  12  54 NW7       29.80R WCI  19
LITCHFIELD     MOSUNNY   34  19  55 NW15      29.81R WCI  24
BUFFALO        PTSUNNY   33  21  63 W13       29.80R WCI  23
MAPLE LAKE     MOSUNNY   35  22  58 NW17      29.80R WCI  25
HUTCHINSON     SUNNY     33  23  66 W18G24    29.82R WCI  22
$$
MNZ037-044-045-052-053-261900-
   East Central Minnesota

CITY           SKY/WX    TMP DP  RH WIND       PRES   REMARKS
PRINCETON      PTSUNNY   36  21  55 NW15G22   29.77R
MORA           CLOUDY    28  18  64 NW14G20   29.79R WCI  17
CAMBRIDGE      PTSUNNY   36  21  55 W14G22    29.75R
RUSH CITY      CLOUDY    32  21  64 NW12G20   29.76R WCI  23
MOOSE LAKE     PTSUNNY   27  14  59 NW9       29.75R WCI  17
HINCKLEY       CLOUDY    30  21  69 W10G17    29.76R WCI  21
CLOQUET        FLURRIES  21  12  68 NW14      29.72R WCI   8
MCGREGOR       SUNNY     23  10  58 NW10      29.77R WCI  12
$$
MNZ071>073-080-081-089-090-097-098-261900-
   Southwest Minnesota

CITY           SKY/WX    TMP DP  RH WIND       PRES   REMARKS
MONTEVIDEO     SUNNY     28  19  69 N15       29.87R WCI  17
GRANITE FALLS  SUNNY     31  22  67 NW14      29.87R WCI  21
CANBY          SUNNY     30  20  67 N10       29.87R WCI  21
MARSHALL       MOSUNNY   32  22  66 N14       29.85R WCI  22
REDWOOD FALLS  MOSUNNY   34  19  54 W15       29.84R WCI  24
OLIVIA         MOSUNNY   32  21  64 NW14G23   29.84R WCI  22
PIPESTONE      SUNNY     36  19  51 NW9       29.82S
WINDOM         SUNNY     36  25  64 W13       29.84R
WORTHINGTON    SUNNY     33  25  72 W10       29.85R WCI  25
JACKSON        SUNNY     32  25  74 W10       29.85R WCI  24
TRACY          MOSUNNY   35  26  68 NW7       29.84R WCI  30
SLAYTON        SUNNY     34  21  59 W12       29.83S WCI  26
$$
MNZ065>067-074>077-082>085-091>093-261900-
   South Central Minnesota

CITY           SKY/WX    TMP DP  RH WIND       PRES   REMARKS
MANKATO          N/A     33  24  69 NW14      29.84R WCI  23
NEW ULM        MOSUNNY   36  25  64 W12G18    29.84R
ST JAMES       SUNNY     34  27  75 W12       29.86R WCI  25
FAIRMONT       SUNNY     31  24  75 W12       29.86R WCI  22
GLENCOE        PTSUNNY   35  28  77 W15       29.81R WCI  25
FARIBAULT      PTSUNNY   32  25  74 SW7       29.82S WCI  26
OWATONNA       PTSUNNY   30  21  69 W12       29.83R WCI  21
WASECA         PTSUNNY   30  23  74 SW9       29.86R WCI  22
ALBERT LEA     SUNNY     28  19  69 W8        29.84R WCI  20
$$
MNZ078>079-086>088-094>096-261900-
   Southeast Minnesota

CITY           SKY/WX    TMP DP  RH WIND       PRES   REMARKS
ROCHESTER      SUNNY     28  22  78 SW14      29.82R WCI  17
6HR MIN TEMP:  18; 6HR MAX TEMP:  28;

RED WING       MOSUNNY   30  19  64 W9        29.80F WCI  22
STANTON        PTSUNNY   31  22  69 SW9       29.81R WCI  23
WINONA         SUNNY     34  23  64 SW5       29.83F WCI  30
AUSTIN         SUNNY     30  21  69 W8        29.83S WCI  23
PRESTON        SUNNY     32  21  65 SW15      29.82S WCI  22
$$
ABBREVIATIONS USED IN REMARKS
   TC - TEMPERATURES IN CELSIUS
  WCI - WIND CHILL INDEX
   HX - HEAT INDEX
  VSB - VISIBILITY
$$




USA.gov is the U.S. government's official web portal to all federal, state and local government web resources and services.